TIME,DELAY(SENSOR),PRES,T(CTD),SAL,OXYGEN,RAWTEMP,T(OPTODE),TCPHASE,FLUOR,BETA(BETA700),BETA(BETA412),BETA(BETA440),CDOM,C(CSC),ED(ED412.40),ED(ED444.00),ED(ED489.70),ED(ED554.30),LU(LU411.80),LU(LU443.40),LU(LU489.60),LU(LU554.10),COMP,TILTX,TILTX(TILTY),CHECK
1341178370,5807,494.5499877929687500,7.2746000289916990,34.1735992431640600,78.7139663696289000,578.9329833984375000,7.2627301216125490,48.7565498352050800,52,107,88,81,80,15367,2147746624,2147421869,2148003995,2147871442,2147626971,2147078592,2148241453,2147201106,2,4,12,24698
1341178473,5811,484.0700073242187500,7.4478998184204100,34.1757011413574200,83.9250030517578100,573.5556030273438000,7.4352607727050780,48.0617790222168000,51,106,89,80,79,15365,2147748077,2147421741,2148002587,2147874697,2147628278,2147079332,2148236096,2147199990,3154,4,13,21628
1341178590,5806,472.2699890136719000,7.5873999595642090,34.1743011474609400,87.0850372314453100,569.4125976562500000,7.5680122375488280,47.6374282836914060,51,109,91,81,79,15366,2147747227,2147423250,2148005083,2147873590,2147626788,2147085577,2148236973,2147204845,2969,4,13,62776
1341178705,5809,460.5700073242187500,7.5995998382568360,34.1439018249511700,96.6999282836914000,569.3372802734375000,7.5704231262207030,46.5644912719726560,52,106,88,80,78,15368,2147745371,2147420635,2148003474,2147872466,2147624182,2147092132,2148233289,2147204608,3234,4,13,40237
1341178808,5812,450.2500000000000000,7.9085998535156250,34.1497001647949200,106.9582977294921900,559.3179931640625000,7.8908419609069820,45.3268013000488300,51,106,91,81,78,15367,2147748745,2147421915,2148002724,2147871003,2147625709,2147086372,2148233526,2147201526,308,4,13,48230
1341178926,5807,440.2000122070312500,7.8720002174377440,34.1217994689941400,117.2294006347656200,560.0435180664062000,7.8676681518554690,44.3153686523437500,50,107,91,81,78,15370,2147743341,2147418761,2148002925,2147875300,2147624914,2147087643,2148237138,2147203968,3324,4,13,60413
1341179089,5809,428.8800048828125000,7.9910001754760740,34.1165008544921900,125.2281036376953100,556.6306152343750000,7.9766411781311035,43.5018806457519500,50,105,88,80,77,15370,2147745810,2147420297,2147998994,2147873865,2147626843,2147088896,2148235392,2147203867,3159,4,13,63353
1341179244,5811,416.7000122070312500,8.3711004257202150,34.1464004516601560,122.6569976806640600,544.3253173828125000,8.3687248229980470,43.5371208190918000,50,109,84,82,76,15365,2147743753,2147421504,2148003081,2147874706,2147622180,2147089746,2148233545,2147205366,1680,4,13,14966
1341179371,5805,405.1900024414062500,8.4597997665405270,34.1138000488281250,137.2931976318359400,540.0498046875000000,8.5046672821044920,42.1354713439941400,50,108,88,80,76,15368,2147744100,2147419154,2147999049,2147873298,2147620178,2147086948,2148228973,2147203931,776,5,13,27410
1341179488,5806,394.7399902343750000,8.8017997741699220,34.1436004638671900,135.4481964111328000,531.0546875000000000,8.7901954650878900,42.1446113586425800,50,109,89,82,76,15360,2147743734,2147419520,2148001206,2147873298,2147621677,2147094482,2148230098,2147203245,750,5,13,56748
1341179615,5805,383.5199890136719000,9.0128002166748050,34.1337013244628900,146.2752990722656200,524.5778808593750000,8.9953975677490230,41.1072196960449200,50,108,86,81,76,15365,2147741366,2147418066,2148002157,2147873344,2147617590,2147097554,2148229522,2147206107,622,4,13,16923
1341179742,5809,372.5499877929687500,9.1950998306274410,34.1226005554199200,161.2917022705078000,518.6862792968750000,9.1817836761474610,39.8091392517089840,50,107,92,81,74,15368,2147738642,2147419492,2147995291,2147871250,2147617709,2147097691,2148223140,2147204123,156,4,13,37395
1341179871,5809,362.0299987792969000,9.5993995666503900,34.1313018798828100,171.9317932128906200,506.4352111816406000,9.5685338973999020,38.8076095581054700,50,109,88,82,73,15366,2147735981,2147421165,2147999890,2147876214,2147615890,2147104548,2148223917,2147202870,854,4,13,39402
1341180022,5809,350.4500122070312500,9.7838001251220700,34.1414985656738300,174.3692016601562500,499.7149963378906000,9.7802248001098630,38.5184211730957000,49,110,90,82,74,15365,2147742034,2147418733,2147998976,2147871798,2147613330,2147105197,2148222281,2147202377,1661,4,14,21053
1341180169,5808,338.0899963378906000,10.0272998809814450,34.1515998840332000,172.8706970214843800,491.3259887695312500,10.0440397262573240,38.4832687377929700,50,111,90,81,74,15361,2147736905,2147421440,2148003648,2147871798,2147611721,2147105380,2148216118,2147204315,2748,4,14,27823
1341180284,5811,327.2200012207031000,10.5815000534057620,34.1604003906250000,181.7962036132812500,474.6706848144531000,10.5664300918579100,37.5784187316894500,50,108,88,82,72,15359,2147736841,2147422564,2148002011,2147875730,2147609865,2147103405,2148220150,2147202962,2846,3,14,57809
1341180413,5807,316.0299987792969000,11.0347003936767580,34.1761016845703100,187.3845062255859400,459.3760986328125000,11.0445995330810550,36.9496192932128900,50,111,88,79,71,15359,2147734107,2147421632,2148005165,2147873974,2147610422,2147108187,2148219830,2147208256,199,4,13,37131
1341180540,5807,305.6499938964844000,11.6131000518798830,34.2009010314941400,193.4020996093750000,441.6008911132812500,11.5985898971557620,36.2684898376464840,49,109,87,79,72,15361,2147734354,2147422729,2148003721,2147873654,2147606902,2147117504,2148222765,2147208192,684,4,14,25252
1341180679,5810,293.7000122070312500,12.2597999572753900,34.2374992370605500,196.1566009521484400,420.2727966308594000,12.2610502243042000,35.7513084411621100,49,113,90,81,70,15358,2147732800,2147423698,2148015881,2147871643,2147605056,2147118784,2148219401,2147208356,1345,4,13,60332
1341180808,5809,282.4100036621094000,12.5944995880126950,34.2486000061035160,198.8003997802734400,409.8357849121094000,12.5844001770019530,35.4217681884765600,49,113,92,81,71,15360,2147727698,2147427218,2148017371,2147872886,2147601051,2147122002,2148217938,2147207405,724,4,13,22946
1341180935,5811,272.1199951171875000,13.3016004562377930,34.2890014648437500,198.7395935058593800,386.6115112304687500,13.3021297454833980,35.0618515014648440,48,108,91,81,69,15360,2147726811,2147430473,2148026651,2147872027,2147599872,2147127469,2148215213,2147212443,3308,4,14,17198
1341181100,5808,262.3800048828125000,13.9975004196167000,34.3470001220703100,199.9891967773437500,363.9049072265625000,14.0017595291137700,34.6353492736816400,49,111,91,81,69,15358,2147729060,2147434614,2148037860,2147874733,2147593280,2147136640,2148217746,2147210861,2676,3,14,32665
1341181335,5804,251.0800018310547000,14.7952995300292970,34.4194984436035160,201.0110015869140600,338.2979125976562500,14.7886295318603520,34.1861305236816400,49,109,91,80,68,15350,2147722678,2147439104,2148044489,2147872027,2147587968,2147145307,2148219200,2147214628,581,3,14,59709
1341181481,5810,239.2500000000000000,15.3486003875732420,34.4729003906250000,201.6602935791015600,318.9685058593750000,15.3813600540161130,33.8596611022949200,49,109,88,81,68,15355,2147721225,2147446326,2148064749,2147874861,2147585179,2147152155,2148224118,2147214326,3335,4,14,53741
1341181596,5806,227.5599975585937500,16.1039009094238280,34.5472984313964840,202.4100036621093800,297.4457092285156000,16.0403499603271500,33.4987182617187500,50,108,88,82,67,15354,2147722907,2147465133,2148097353,2147873380,2147583680,2147168676,2148240237,2147216091,153,4,14,22311
1341181701,5809,217.7799987792968800,17.0939006805419920,34.6617012023925800,203.0357971191406200,264.4624023437500000,17.0487499237060550,32.9854812622070300,53,108,92,81,67,15350,2147725110,2147477110,2148136036,2147871890,2147584310,2147180461,2148256868,2147217243,134,3,15,25645
1341181852,5810,206.3800048828125000,17.7868995666503900,34.7537994384765600,207.3049011230468800,240.5354003906250000,17.7796096801757800,32.4014396667480500,55,113,89,80,67,15344,2147733952,2147514395,2148218797,2147872877,2147581101,2147207872,2148282806,2147219410,2543,3,14,4725
1341181979,5811,198.3600006103515600,18.4769992828369140,34.8320999145507800,207.6278991699218800,218.5157012939453000,18.4520492553710940,32.0757789611816400,63,114,90,82,66,15338,2147745846,2147565120,2148331830,2147871670,2147585618,2147241554,2148334930,2147225682,2742,3,15,6714
1341182054,5807,194.8099975585937500,18.6448001861572270,34.8532981872558600,208.5531005859375000,212.3851928710937500,18.6392803192138670,31.9394302368164060,65,118,92,80,66,15333,2147756562,2147605677,2148407104,2147873142,2147588973,2147261504,2148372580,2147229257,2178,3,15,40727
1341182181,5810,190.8000030517578000,18.9018993377685550,34.8811988830566400,209.3560943603515600,204.7005004882812500,18.8739891052246100,31.7888908386230470,68,114,92,83,65,15332,2147776493,2147667968,2148540754,2147874176,2147591332,2147304201,2148431131,2147234989,1140,3,15,24816
1341182284,5807,186.6999969482422000,19.0977001190185550,34.9126014709472660,209.8883972167968800,198.0460052490234400,19.0772705078125000,31.6683807373046880,67,113,92,83,65,15332,2147788699,2147695204,2148576283,2147873508,2147594038,2147318162,2148443392,2147235026,1429,3,15,15324
1341182371,5807,182.1399993896484400,19.0970001220703120,34.9107017517089840,210.3435058593750000,197.5301055908203000,19.0930404663085940,31.6364994049072270,65,113,91,82,65,15338,2147831186,2147793005,2148767460,2147874422,2147613092,2147372461,2148533668,2147239515,1622,3,15,16595
1341182438,5808,178.0000000000000000,19.5135002136230470,34.9468994140625000,209.7095031738281200,184.6867980957031200,19.4854907989501950,31.4959201812744140,69,112,92,83,64,15335,2147873453,2147903296,2148970148,2147878820,2147630409,2147427437,2148625764,2147249408,2251,3,15,36398
1341182505,5805,174.5200042724609400,19.7429008483886720,34.9740982055664060,210.6204071044922000,177.2299041748047000,19.7134304046630860,31.3448905944824220,72,112,89,83,64,15332,2147940489,2148040036,2149225691,2147877001,2147656256,2147506395,2148746550,2147256905,2530,3,15,14960
1341182596,5810,170.6199951171875000,20.2161998748779300,35.0239982604980500,211.1448059082031200,163.8224029541015600,20.1234703063964840,31.1356391906738280,80,113,90,81,62,15325,2147968749,2148066724,2149244717,2147876214,2147667136,2147526061,2148746797,2147261284,3360,3,15,18939
1341182725,5805,167.4600067138672000,20.6026000976562500,35.0705986022949200,213.4058074951172000,149.4161987304687500,20.5643901824951170,30.8213291168212900,90,121,92,83,63,15312,2147995309,2148086107,2149235017,2147879369,2147674294,2147529435,2148742381,2147257828,612,3,15,52545
1341183007,5806,162.8399963378906200,21.2598991394042970,35.1623992919921900,220.9474029541015600,127.7232971191406200,21.2291603088378900,30.1431293487548830,94,116,92,82,61,15307,2148149641,2148343753,2149670683,2147883629,2147739364,2147665142,2148923172,2147272749,547,2,15,10085
1341183122,5809,158.9700012207031200,21.4123001098632800,35.1735992431640600,226.2590026855468800,121.7789001464843800,21.4115295410156250,29.8003292083740230,95,115,90,83,64,15298,2148330788,2148652489,2150219995,2147883017,2147818825,2147831405,2149162797,2147291209,265,2,15,52567
1341183237,5808,155.1600036621093800,21.7336997985839840,35.2240982055664060,230.7928924560547000,111.9766006469726600,21.7124691009521500,29.4534301757812500,101,118,89,82,62,15292,2148290688,2148530139,2149946761,2147885485,2147811520,2147776393,2149026322,2147283026,535,2,15,580
1341183351,5811,150.4100036621093800,21.8469009399414060,35.2271995544433600,233.4353942871093800,107.8201980590820300,21.8401603698730470,29.2741603851318360,105,121,92,82,62,15280,2148685010,2149191844,2151091172,2147889782,2147991771,2148124635,2149533403,2147319552,3552,2,15,39345
1341183430,5808,146.6399993896484400,21.8911991119384770,35.1930007934570300,231.4378967285156200,106.4709014892578100,21.8816204071044920,29.3518600463867200,136,128,93,84,62,15245,2149059602,2149780361,2152020516,2147900306,2148137746,2148370496,2149893092,2147347337,2704,2,16,18857
1341183521,5809,142.3800048828125000,22.2541999816894530,35.2755012512207000,234.9577026367187500,95.1516571044921900,22.2297000885009770,29.0409202575683600,112,123,93,82,61,15260,2149572032,2150568941,2153247670,2147910646,2148365385,2148738166,2150390336,2147391131,2040,2,16,35419
1341183602,5809,138.7299957275390600,22.3251991271972660,35.2481002807617200,240.7523040771484400,92.2449035644531200,22.3191604614257800,28.7374706268310550,120,125,92,84,60,15250,2150003236,2151190244,2154137142,2147921170,2148591597,2149066861,2150784420,2147418331,1959,3,16,28260
1341183705,5805,134.6300048828125000,22.4062995910644530,35.2398986816406250,241.2416992187500000,89.3225936889648400,22.4091205596923830,28.6782894134521500,129,128,94,84,60,15226,2150449472,2151759634,2154798738,2147933202,2148791497,2149305206,2151043337,2147442313,1496,2,15,13936
1341183808,5804,130.8800048828125000,22.4039001464843750,35.1929016113281250,237.8354949951172000,88.9334335327148400,22.4211006164550780,28.8285903930664060,149,130,91,85,61,15217,2150959049,2152365147,2155428790,2147940379,2148964864,2149504612,2151241426,2147464740,3466,2,16,58292
1341183934,5808,126.2399978637695300,22.6459007263183600,35.1990013122558600,235.0677947998047000,81.8768768310546900,22.6384792327880860,28.8672695159912100,152,129,93,85,61,15201,2152600813,2154590720,2158286537,2147980022,2149525476,2150282331,2152204827,2147551314,3355,1,16,51192
1341184013,5808,122.4199981689453100,22.8490009307861330,35.1950988769531250,235.7602996826172000,75.3651885986328100,22.8392391204834000,28.7528095245361330,127,129,93,85,60,15214,2154083044,2156520000,2160638811,2148015250,2150105472,2151058249,2153131593,2147635657,3229,2,16,56697
1341184092,5810,118.5400009155273400,23.0030994415283200,35.2151985168457000,237.2790069580078000,70.4275436401367200,22.9915790557861330,28.6207199096679700,121,128,91,84,60,15221,2154754258,2157155803,2161017901,2148034358,2150436086,2151398912,2153383003,2147664731,2488,3,16,52846
1341184171,5806,114.5299987792968800,23.0764007568359380,35.2312011718750000,239.4235992431640600,68.0465469360351600,23.0650806427001950,28.4929409027099600,100,126,93,85,61,15238,2156821385,2159720448,2163989010,2148091620,2151453184,2152707675,2154800896,2147794185,2664,2,16,16930
1341184252,5807,110.5699996948242200,23.1121006011962900,35.2369003295898440,241.5664978027343800,66.3081588745117200,23.1187496185302730,28.3746299743652340,95,126,94,85,59,15238,2157898825,2160786934,2164841188,2148123995,2152175524,2153512100,2155457828,2147857005,2862,2,16,62665
1341184343,5808,106.4300003051757800,23.2439002990722660,35.2472991943359400,245.6145935058593800,62.6684112548828100,23.2311801910400400,28.1494407653808600,87,129,92,84,59,15235,2161299273,2164957659,2169616932,2148242605,2154184859,2155977801,2157908406,2148072420,2256,2,16,48661
1341184446,5806,103.1200027465820300,23.3805999755859380,35.2135009765625000,243.6262054443359400,58.2165107727050800,23.3687591552734380,28.1818103790283200,88,127,94,84,59,15235,2163053952,2166727643,2171259995,2148305929,2155297901,2157219885,2158977426,2148165302,1130,2,16,56000
1341184596,5807,98.6399993896484400,23.4435005187988280,35.1949005126953100,242.9868011474609400,55.7588996887207000,23.4447498321533200,28.1796607971191400,83,127,92,85,60,15239,2171118820,2176091062,2181631195,2148613449,2159628406,2162467977,2164057792,2148623360,292,2,16,18914
1341184651,5802,96.4300003051757800,23.5142993927001950,35.2070007324218750,242.6078033447265600,53.7735481262207000,23.5061607360839840,28.1717300415039060,78,127,96,85,60,15227,2164754541,2167381522,2170460214,2148369316,2156657060,2158280420,2159253211,2148203730,303,2,16,2334
1341184706,5807,94.2799987792968800,23.5405006408691400,35.2122001647949200,242.5704040527343800,52.8234100341796900,23.5355491638183600,28.1615200042724600,78,128,92,85,59,15224,2165475602,2167709796,2170274642,2148386395,2157199616,2158698816,2159369298,2148220452,393,2,16,53967
1341184761,5806,92.3600006103515600,23.7040996551513670,35.1963005065918000,243.5827941894531200,49.4325790405273440,23.6404895782470700,28.0746707916259770,79,132,93,85,58,15217,2176665362,2180923218,2185266651,2148869138,2163318582,2166070555,2166589586,2148880265,651,2,16,19935
1341184816,5806,91.0400009155273400,23.8274993896484380,35.2025985717773440,243.5868988037109400,44.7008781433105500,23.7870101928710940,28.0157394409179700,77,128,92,84,61,15235,2178344384,2182314450,2186174957,2148903350,2164945618,2167710043,2167896000,2148985792,908,2,16,2744
1341184893,5808,88.9599990844726600,23.9195003509521500,35.2181015014648440,245.1175994873047000,40.2992286682128900,23.9234104156494140,27.8938903808593750,76,124,95,85,57,15230,2190236187,2195815817,2200848877,2149497316,2172771428,2176447323,2175803053,2149726144,1225,2,16,46207
1341184948,5807,86.8499984741211000,24.0282993316650400,35.2243995666503900,245.9846954345703000,37.3848991394043000,24.0137691497802730,27.8200492858886720,76,128,93,85,58,15223,2194024457,2199856841,2204734235,2149713554,2176407753,2179992045,2178588662,2149978578,705,2,16,39756
1341185003,5805,84.7799987792968800,24.1084003448486330,35.2205009460449200,245.8175048828125000,34.5895614624023440,24.1004791259765620,27.7928199768066400,77,129,93,85,58,15208,2197190857,2203321088,2208065545,2149976374,2179710235,2183009618,2180764114,2150198774,413,2,16,24460
1341185058,5806,82.5599975585937500,24.1868991851806640,35.2163009643554700,245.4747009277343800,32.0838584899902340,24.1782398223876950,27.7769107818603500,74,130,92,86,56,15211,2198369691,2204258797,2208522962,2150156443,2182130093,2184930642,2181835940,2150300544,328,2,16,56421
1341185113,5809,80.2600021362304700,24.1959991455078120,35.2163009643554700,245.4676971435547000,31.5082302093505860,24.1961002349853500,27.7702007293701170,74,128,94,86,57,15206,2203036589,2209124745,2213124406,2150552521,2186870546,2189481033,2185357577,2150661248,204,2,16,61882
1341185168,5811,77.7900009155273400,24.2183990478515620,35.2154006958007800,245.3471069335937500,30.8438892364501950,24.2167301177978500,27.7672290802001950,75,128,95,83,58,15212,2211507364,2218679789,2222976969,2151279579,2193770779,2196368219,2190794038,2151229376,3303,2,16,58998
1341185246,5807,73.6600036621093800,24.2315998077392580,35.2149009704589840,245.3213958740234400,30.4078197479248050,24.2302608489990230,27.7630996704101560,75,128,92,84,57,15209,2224102592,2232455533,2236652626,2152566482,2205536667,2207810971,2199566025,2152192118,2425,2,16,44579
1341185301,5809,70.0899963378906200,24.2719001770019530,35.2103004455566400,245.1157073974609400,29.0351791381835940,24.2728900909423830,27.7549591064453120,72,125,91,85,59,15214,2234445668,2243178971,2246791323,2153840960,2215876278,2217847844,2207166061,2153066560,2274,2,16,16418
1341185356,5809,66.4499969482421900,24.3104991912841800,35.2088012695312500,245.1461944580078000,27.8947391510009770,24.3083095550537100,27.7398109436035160,70,126,93,85,62,15203,2240236470,2249173412,2252064886,2154987538,2220954825,2222054720,2209595163,2153498267,2408,2,16,58530
1341185411,5809,62.9099998474121100,24.4766006469726560,35.1847000122070300,244.9165039062500000,23.1818199157714840,24.4547500610351560,27.6916904449462900,67,129,95,86,59,15200,2259129545,2269018532,2271518308,2157591643,2238773824,2239617042,2223381970,2155158619,2593,2,16,52566
1341185466,5808,59.7299995422363300,24.5881996154785160,35.1693000793457000,244.8583984375000000,19.2710304260253900,24.5763607025146500,27.6462097167968750,67,124,92,85,58,15195,2278339282,2288396937,2290005394,2160286427,2254760064,2255265453,2235336182,2156625746,3354,2,16,39907
1341185521,5805,57.1100006103515600,25.0083007812500000,35.1202011108398440,243.1417999267578000,7.6087660789489750,24.9395008087158200,27.5780696868896500,65,125,96,85,58,15209,2297002230,2308437156,2310843108,2163718838,2269548123,2270205650,2246968438,2158248429,606,3,17,11809
1341185578,5805,55.5000000000000000,25.0492992401123050,35.1211013793945300,242.3596954345703000,4.3700790405273440,25.0404796600341800,27.5726604461669920,63,122,92,84,58,15211,2298558262,2308817499,2310008027,2163963931,2275087204,2275184868,2250248923,2158683318,1009,2,16,55341
1341185645,5807,54.5800018310546900,25.0611000061035160,35.1202011108398440,241.9443054199218800,3.4434471130371094,25.0693893432617200,27.5795707702636720,63,124,94,82,53,15194,2294828461,2305130587,2306678573,2164018944,2270509138,2270271990,2245735360,2158311067,1322,2,17,62385
1341185987,5804,52.6899986267089840,25.2978000640869140,35.0662994384765600,239.2299041748047000,-3.9297759532928467,25.2995491027832030,27.6094493865966800,60,120,93,83,58,15200,2256683666,2261096886,2258533705,2159362349,2245899081,2241846144,2219572781,2155245769,614,2,16,55772
1341186126,5807,50.3499984741210940,25.3248996734619140,35.0591011047363300,238.7415008544922000,-4.9377408027648930,25.3310508728027340,27.6186904907226560,58,119,95,85,55,15202,2283413229,2290546944,2288568941,2164215213,2276336393,2270190244,2239765705,2157858121,3376,1,17,7435
1341186204,5807,47.9500007629394500,25.3481006622314450,35.0646018981933600,238.5588073730468800,-5.4647860527038570,25.3475093841552730,27.6203098297119140,58,119,91,84,56,15204,2258249408,2261930404,2258591049,2161725238,2258534427,2250702253,2223439798,2156133796,3107,2,16,27550
1341186259,5809,45.3699989318847660,25.3514995574951170,35.0646018981933600,238.4842987060547000,-5.4729490280151370,25.3477706909179700,27.6236896514892580,56,119,93,85,57,15197,2256280329,2259085293,2255475117,2162588050,2260962386,2251659620,2222620854,2156240585,3070,2,16,1873
1341186314,5806,42.6199989318847660,25.3465995788574220,35.0572013854980500,238.5113983154297000,-5.5011749267578125,25.3486499786376950,27.6221408843994140,56,120,92,85,56,15198,2271790482,2275815835,2272909001,2167082870,2280934902,2269817371,2235158253,2158185636,3372,2,16,16036
1341186369,5809,39.8899993896484400,25.3491992950439450,35.0550003051757800,238.6103973388672000,-5.5850648880004880,25.3512706756591800,27.6165695190429700,56,119,94,83,57,15193,2265016228,2267776768,2264454811,2167838006,2277935067,2265549997,2231024758,2158057280,106,2,16,15885
1341186424,5811,37.1100006103515600,25.3561992645263670,35.0559997558593750,238.5827941894531200,-5.8609299659729000,25.3598899841308600,27.6144008636474600,55,119,92,84,57,15203,2270831725,2273618157,2270318198,2171309696,2287336484,2273220525,2235697673,2159211995,163,2,16,33916
1341186479,5809,34.2799987792968750,25.3579998016357420,35.0553016662597660,238.4889984130859400,-5.9397068023681640,25.3623504638671880,27.6176605224609380,55,118,93,84,56,15202,2284887396,2288535853,2285662683,2177993920,2308190756,2291719561,2248199716,2161647131,11,1,16,47062
1341186536,5804,31.3999996185302730,25.3591003417968750,35.0551986694335940,238.7111053466797000,-6.0279250144958500,25.3651103973388670,27.6066703796386720,56,119,95,87,58,15208,2312776749,2318449901,2316572169,2190615241,2343659090,2324066157,2270931117,2166254244,3288,2,17,18787
1341186591,5810,28.6299991607666000,25.3619995117187500,35.0542984008789060,238.6372070312500000,-6.0610680580139160,25.3661499023437500,27.6096897125244140,54,118,92,85,54,15207,2302088146,2306634907,2304491373,2190978550,2334717476,2314250998,2262937033,2165814345,3145,2,15,29592
1341186646,5806,25.7900009155273440,25.3651008605957030,35.0556983947753900,238.6233062744140600,-6.2912020683288570,25.3733406066894530,27.6074790954589840,54,125,93,84,56,15201,2299231414,2303039936,2300871369,2195296758,2335167305,2313229275,2261336173,2166688402,3153,2,16,24861
1341186701,5809,22.8899993896484380,25.3729991912841800,35.0561981201171900,238.6979980468750000,-6.4784560203552250,25.3791904449462900,27.6016902923584000,54,119,92,83,55,15206,2307560128,2311860086,2310517101,2206010176,2349007506,2324777289,2268922596,2169704758,3096,3,16,7161
